| time (UTC) | temp F | wind direction | speed knots | gust knots | rain 1hr in | rain 24hr in | rain mn in | humidity % | barometer mb |
| 20260504175515 | 65 | 246 | 0.0 | 4.3 | 0.00 | 0.00 | 0.00 | 78 | 999.1 |
| 20260504174516 | 65 | 196 | 0.0 | 1.7 | 0.00 | 0.00 | 0.00 | 78 | 999.5 |
| 20260504173515 | 65 | 0.0 | 4.3 | 0.00 | 0.00 | 0.00 | 77 | 999.6 | |
| 20260504172515 | 65 | 227 | 0.9 | 5.2 | 0.00 | 0.00 | 0.00 | 74 | 999.8 |
| 20260504171535 | 65 | 224 | 0.9 | 6.1 | 0.00 | 0.00 | 0.00 | 74 | 999.8 |
| 20260504170515 | 65 | 223 | 1.7 | 7.0 | 0.00 | 0.00 | 0.00 | 72 | 999.8 |
| 20260504150515 | 67 | 264 | 0.0 | 6.1 | 0.00 | 0.00 | 0.00 | 62 | 1001.3 |
| 20260504140516 | 70 | 228 | 2.6 | 9.6 | 0.00 | 0.00 | 0.00 | 60 | 1001.4 |
| 20260504130516 | 64 | 226 | 1.7 | 7.0 | 0.00 | 0.00 | 0.00 | 69 | 1002.0 |
| 20260504110536 | 59 | 0.0 | 0.0 | 0.00 | 0.00 | 0.00 | 75 | 1002.2 | |
| 20260504100515 | 59 | 244 | 0.9 | 1.7 | 0.00 | 0.00 | 0.00 | 78 | 1002.5 |
| 20260504081515 | 61 | 0.0 | 0.0 | 0.00 | 0.00 | 0.00 | 76 | 1002.6 | |
| 20260504080514 | 61 | 0.0 | 0.0 | 0.00 | 0.00 | 0.00 | 75 | 1002.4 | |
| 20260504050536 | 66 | 18 | 0.0 | 0.9 | 0.00 | 0.00 | 0.00 | 60 | 1002.3 |
| 20260504045535 | 67 | 17 | 0.0 | 3.5 | 0.00 | 0.00 | 0.00 | 59 | 1002.2 |
| 20260504044515 | 67 | 269 | 0.0 | 2.6 | 0.00 | 0.00 | 0.00 | 59 | 1002.3 |
| 20260504043535 | 67 | 269 | 0.0 | 2.6 | 0.00 | 0.00 | 0.00 | 58 | 1002.4 |
| 20260504042515 | 68 | 238 | 0.0 | 1.7 | 0.00 | 0.00 | 0.00 | 57 | 1002.7 |
| 20260504041515 | 68 | 221 | 0.0 | 4.3 | 0.00 | 0.00 | 0.00 | 56 | 1003.0 |
| 20260504040515 | 68 | 231 | 0.0 | 1.7 | 0.00 | 0.00 | 0.00 | 57 | 1003.3 |
| 20260504035516 | 69 | 276 | 0.0 | 3.5 | 0.00 | 0.00 | 0.00 | 57 | 1002.7 |
| 20260504034515 | 69 | 225 | 0.9 | 6.1 | 0.00 | 0.00 | 0.00 | 57 | 1003.0 |
| 20260504033514 | 69 | 232 | 0.9 | 4.3 | 0.00 | 0.00 | 0.00 | 57 | 1003.4 |
| 20260504032515 | 69 | 227 | 0.0 | 3.5 | 0.00 | 0.00 | 0.00 | 57 | 1003.5 |
| 20260504031517 | 69 | 220 | 0.0 | 3.5 | 0.00 | 0.00 | 0.00 | 56 | 1003.6 |
| 20260504030517 | 70 | 0.0 | 0.0 | 0.00 | 0.00 | 0.00 | 55 | 1003.6 | |
| 20260504025516 | 70 | 225 | 0.0 | 0.9 | 0.00 | 0.00 | 0.00 | 54 | 1003.5 |
| 20260504024515 | 71 | 225 | 0.0 | 0.9 | 0.00 | 0.00 | 0.00 | 54 | 1003.4 |
| 20260504023515 | 71 | 232 | 0.0 | 1.7 | 0.00 | 0.00 | 0.00 | 53 | 1003.5 |
| 20260504022536 | 71 | 244 | 0.0 | 0.9 | 0.00 | 0.00 | 0.00 | 52 | 1003.5 |
| 20260504021515 | 71 | 218 | 0.0 | 5.2 | 0.00 | 0.00 | 0.00 | 51 | 1003.4 |
| 20260504020515 | 71 | 0.0 | 2.6 | 0.00 | 0.00 | 0.00 | 52 | 1003.4 | |
| 20260504015516 | 72 | 293 | 0.9 | 3.5 | 0.00 | 0.00 | 0.00 | 51 | 1003.3 |
| 20260504014535 | 72 | 1 | 0.9 | 2.6 | 0.00 | 0.00 | 0.00 | 51 | 1003.4 |
| 20260504013515 | 72 | 240 | 0.0 | 2.6 | 0.00 | 0.00 | 0.00 | 50 | 1002.9 |
| 20260504012515 | 73 | 232 | 0.0 | 2.6 | 0.00 | 0.00 | 0.00 | 49 | 1002.7 |
| 20260504011515 | 73 | 267 | 0.0 | 2.6 | 0.00 | 0.00 | 0.00 | 48 | 1002.6 |
| 20260504010515 | 73 | 219 | 0.0 | 2.6 | 0.00 | 0.00 | 0.00 | 48 | 1002.5 |
| 20260504005515 | 74 | 226 | 0.0 | 1.7 | 0.00 | 0.00 | 0.00 | 48 | 1002.6 |
| 20260504004636 | 74 | 244 | 0.0 | 3.5 | 0.00 | 0.00 | 0.00 | 47 | 1002.5 |
| 20260504003535 | 75 | 209 | 0.0 | 2.6 | 0.00 | 0.00 | 0.00 | 46 | 1002.6 |
| 20260504002515 | 75 | 234 | 0.0 | 2.6 | 0.00 | 0.00 | 0.00 | 45 | 1002.6 |
| 20260504001515 | 75 | 244 | 0.9 | 3.5 | 0.00 | 0.00 | 0.00 | 44 | 1002.6 |
| 20260504000515 | 76 | 224 | 0.9 | 4.3 | 0.00 | 0.00 | 0.00 | 43 | 1002.7 |
| 20260503235515 | 76 | 221 | 0.0 | 4.3 | 0.00 | 0.00 | 0.00 | 42 | 1002.8 |
| 20260503234514 | 76 | 229 | 0.0 | 3.5 | 0.00 | 0.00 | 0.00 | 42 | 1002.8 |
| 20260503233516 | 77 | 247 | 0.9 | 7.8 | 0.00 | 0.00 | 0.00 | 40 | 1002.8 |
| 20260503232516 | 77 | 242 | 0.9 | 4.3 | 0.00 | 0.00 | 0.00 | 39 | 1002.9 |
| 20260503231517 | 77 | 313 | 0.0 | 5.2 | 0.00 | 0.00 | 0.00 | 39 | 1003.0 |
| 20260503230516 | 77 | 214 | 0.9 | 6.1 | 0.00 | 0.00 | 0.00 | 39 | 1003.0 |
| 20260503225516 | 78 | 280 | 1.7 | 8.7 | 0.00 | 0.00 | 0.00 | 38 | 1003.1 |
| 20260503224516 | 78 | 235 | 0.9 | 5.2 | 0.00 | 0.00 | 0.00 | 38 | 1003.3 |
| 20260503223516 | 78 | 268 | 2.6 | 10.4 | 0.00 | 0.00 | 0.00 | 37 | 1003.4 |
| 20260503222536 | 78 | 257 | 2.6 | 11.3 | 0.00 | 0.00 | 0.00 | 35 | 1003.4 |
| 20260503221516 | 79 | 254 | 1.7 | 7.8 | 0.00 | 0.00 | 0.00 | 36 | 1003.5 |
| 20260503220516 | 79 | 263 | 2.6 | 9.6 | 0.00 | 0.00 | 0.00 | 36 | 1003.6 |
| 20260503215516 | 79 | 256 | 1.7 | 8.7 | 0.00 | 0.00 | 0.00 | 36 | 1003.8 |
| 20260503214516 | 79 | 283 | 1.7 | 7.0 | 0.00 | 0.00 | 0.00 | 35 | 1003.9 |
| 20260503213516 | 79 | 276 | 1.7 | 9.6 | 0.00 | 0.00 | 0.00 | 35 | 1003.9 |
| 20260503212516 | 79 | 323 | 1.7 | 7.0 | 0.00 | 0.00 | 0.00 | 36 | 1004.0 |
| 20260503211536 | 79 | 290 | 1.7 | 14.8 | 0.00 | 0.00 | 0.00 | 35 | 1004.2 |
| 20260503210516 | 79 | 256 | 1.7 | 13.0 | 0.00 | 0.00 | 0.00 | 36 | 1004.2 |
| 20260503205516 | 79 | 251 | 1.7 | 9.6 | 0.00 | 0.00 | 0.00 | 36 | 1004.2 |
| 20260503204516 | 78 | 266 | 1.7 | 13.0 | 0.00 | 0.00 | 0.00 | 35 | 1004.5 |
| 20260503203516 | 78 | 255 | 2.6 | 7.8 | 0.00 | 0.00 | 0.00 | 36 | 1004.6 |
| 20260503202515 | 77 | 251 | 2.6 | 12.2 | 0.00 | 0.00 | 0.00 | 36 | 1004.8 |
| 20260503201538 | 77 | 273 | 1.7 | 9.6 | 0.00 | 0.00 | 0.00 | 38 | 1005.1 |
| 20260503200536 | 77 | 251 | 2.6 | 13.0 | 0.00 | 0.00 | 0.00 | 37 | 1005.3 |
| 20260503195516 | 77 | 223 | 3.5 | 14.8 | 0.00 | 0.00 | 0.00 | 37 | 1005.5 |
| 20260503194535 | 76 | 259 | 2.6 | 11.3 | 0.00 | 0.00 | 0.00 | 37 | 1005.9 |
| 20260503193515 | 76 | 232 | 4.3 | 14.8 | 0.00 | 0.00 | 0.00 | 37 | 1006.1 |
| 20260503192515 | 76 | 231 | 1.7 | 8.7 | 0.00 | 0.00 | 0.00 | 38 | 1006.4 |
| 20260503191515 | 75 | 243 | 3.5 | 13.0 | 0.00 | 0.00 | 0.00 | 37 | 1006.5 |
| 20260503190515 | 75 | 207 | 1.7 | 8.7 | 0.00 | 0.00 | 0.00 | 38 | 1007.0 |
| 20260503185515 | 74 | 247 | 0.9 | 12.2 | 0.00 | 0.00 | 0.00 | 41 | 1007.2 |
| 20260503184535 | 73 | 241 | 2.6 | 15.6 | 0.00 | 0.00 | 0.00 | 39 | 1007.2 |
| 20260503183515 | 73 | 230 | 3.5 | 13.0 | 0.00 | 0.00 | 0.00 | 39 | 1007.5 |
| 20260503182515 | 73 | 228 | 2.6 | 14.8 | 0.00 | 0.00 | 0.00 | 39 | 1007.7 |
| 20260503181515 | 72 | 224 | 3.5 | 11.3 | 0.00 | 0.00 | 0.00 | 40 | 1008.0 |
| 20260503180515 | 72 | 232 | 4.3 | 15.6 | 0.00 | 0.00 | 0.00 | 38 | 1008.3 |